Breckenridge, TX

10:54 PM CDT on April 25, 2018 (GMT -0500)
Stephens County

Weather History for KBKD - December, 2011

Change the Weather History Date:

Sunday, December 11, 2011

  Actual Average (KMWL) Record (KMWL)
Temperature  
Mean Temperature 42 °F -  
Max Temperature 46 °F 57 °F 86 °F (2015)
Min Temperature 37 °F 34 °F 17 °F (2012)
Degree Days  
Heating Degree Days 24    
Moisture  
Dew Point 36 °F    
Average Humidity 81    
Maximum Humidity 100    
Minimum Humidity 57    
Precipitation  
Precipitation 0.08 in - - ()
Sea Level Pressure  
Sea Level Pressure 30.33 in    
Wind  
Wind Speed 2 mph (SE)    
Max Wind Speed 9 mph    
Max Gust Speed -    
Visibility 7 miles    
Events Rain    
Averages and records for this station are not official NWS values.
T = Trace of Precipitation, MM = Missing Value Source: NWS Daily Summary

Daily Weather History Graph

Daily Weather History Graph

Search for Another Location

Airport or City:

Astronomy

Dec. 11, 2011 Rise Set
Actual Time 7:27 AM CST 5:29 PM CST
Civil Twilight 7:00 AM CST 5:57 PM CST
Nautical Twilight 6:29 AM CST 6:27 PM CST
Astronomical Twilight 5:59 AM CST 6:57 PM CST
Moon 6:41 PM CST (12/11) 8:16 AM CST (12/11)
Length of Visible Light 10h 56m
Length of Day
10h 02m
Full, 99% of the Moon is Illuminated
Dec 11
Full
Dec 17
Last Quarter
Dec 24
New
Jan 1
First Quarter
Jan 9
Full

Hourly Weather History & Observations

Time (CST) Temp. Windchill Dew Point Humidity Pressure Visibility Wind Dir Wind Speed Gust Speed Precip Events Conditions
12:15 AM 37.4 °F - 33.8 °F 87% 30.45 in 7.0 mi Calm Calm - N/A   Scattered Clouds
12:35 AM 37.4 °F - 35.6 °F 93% 30.44 in 5.0 mi Calm Calm - N/A   Overcast
12:55 AM 37.4 °F - 35.6 °F 93% 30.43 in 5.0 mi Calm Calm - N/A   Mostly Cloudy
1:15 AM 37.4 °F - 35.6 °F 93% 30.42 in 5.0 mi Calm Calm - N/A   Mostly Cloudy
1:35 AM 37.4 °F - 35.6 °F 93% 30.41 in 5.0 mi Calm Calm - N/A   Overcast
1:55 AM 37.4 °F - 35.6 °F 93% 30.41 in 5.0 mi Calm Calm - N/A   Overcast
2:15 AM 37.4 °F - 35.6 °F 93% 30.41 in 5.0 mi Calm Calm - N/A   Overcast
2:35 AM 39.2 °F - 35.6 °F 87% 30.41 in 5.0 mi Calm Calm - N/A   Overcast
3:15 AM 39.2 °F - 35.6 °F 87% 30.40 in 5.0 mi Calm Calm - N/A   Overcast
3:35 AM 39.2 °F - 35.6 °F 87% 30.39 in 5.0 mi Calm Calm - N/A   Overcast
3:55 AM 39.2 °F 35.9 °F 35.6 °F 87% 30.37 in 5.0 mi SE 4.6 mph - N/A   Overcast
4:15 AM 39.2 °F - 35.6 °F 87% 30.37 in 7.0 mi Calm Calm - N/A   Overcast
4:35 AM 39.2 °F - 35.6 °F 87% 30.37 in 7.0 mi Calm Calm - N/A   Overcast
4:55 AM 39.2 °F - 33.8 °F 81% 30.36 in 7.0 mi Calm Calm - N/A   Overcast
5:15 AM 39.2 °F 37.0 °F 35.6 °F 87% 30.37 in 7.0 mi West 3.5 mph - N/A   Overcast
5:35 AM 39.2 °F 37.0 °F 35.6 °F 87% 30.37 in 5.0 mi WNW 3.5 mph - N/A   Overcast
5:55 AM 39.2 °F 37.0 °F 35.6 °F 87% 30.37 in 5.0 mi West 3.5 mph - N/A   Overcast
6:15 AM 41.0 °F - 35.6 °F 81% 30.37 in 5.0 mi Calm Calm - N/A   Overcast
6:35 AM 41.0 °F - 35.6 °F 81% 30.38 in 5.0 mi Calm Calm - N/A   Light Drizzle
6:55 AM 41.0 °F - 35.6 °F 81% 30.39 in 4.0 mi Calm Calm - N/A Rain Light Rain
7:15 AM 39.2 °F - 37.4 °F 93% 30.38 in 2.5 mi Calm Calm - 0.03 in Rain Rain
7:35 AM 39.2 °F - 37.4 °F 93% 30.38 in 3.0 mi Calm Calm - 0.06 in Rain Light Rain
7:55 AM 39.2 °F - 37.4 °F 93% 30.38 in 3.0 mi Calm Calm - 0.06 in   Drizzle
8:15 AM 39.2 °F - 37.4 °F 93% 30.38 in 3.0 mi Calm Calm - 0.01 in   Drizzle
8:35 AM 39.2 °F - 39.2 °F 100% 30.38 in 3.0 mi Calm Calm - 0.01 in   Light Drizzle
8:55 AM 39.2 °F - 39.2 °F 100% 30.38 in 3.0 mi Calm Calm - 0.01 in Rain Rain
9:15 AM 41.0 °F - 39.2 °F 93% 30.39 in 3.0 mi Calm Calm - 0.01 in Rain Light Rain
9:35 AM 41.0 °F - 39.2 °F 93% 30.39 in 3.0 mi Calm Calm - 0.01 in   Overcast
9:55 AM 41.0 °F - 39.2 °F 93% 30.40 in 4.0 mi Calm Calm - 0.01 in   Light Drizzle
10:15 AM 41.0 °F - 41.0 °F 100% 30.40 in 4.0 mi Calm Calm - N/A Rain Light Rain
10:35 AM 42.8 °F - 41.0 °F 93% 30.39 in 4.0 mi Calm Calm - N/A Rain Light Rain
10:55 AM 42.8 °F 41.1 °F 41.0 °F 93% 30.38 in 4.0 mi SE 3.5 mph - N/A   Light Drizzle
11:15 AM 42.8 °F 40.1 °F 41.0 °F 93% 30.37 in 5.0 mi SE 4.6 mph - N/A   Overcast
11:35 AM 42.8 °F 39.3 °F 39.2 °F 87% 30.37 in 7.0 mi SSE 5.8 mph - N/A   Overcast
11:55 AM 42.8 °F 38.0 °F 39.2 °F 87% 30.35 in 7.0 mi SSE 8.1 mph - N/A   Light Drizzle
12:15 PM 42.8 °F 39.3 °F 37.4 °F 81% 30.34 in 10.0 mi SE 5.8 mph - N/A   Overcast
12:35 PM 44.6 °F 39.7 °F 37.4 °F 76% 30.32 in 10.0 mi SE 9.2 mph - N/A   Overcast
12:55 PM 44.6 °F 41.4 °F 37.4 °F 76% 30.31 in 10.0 mi SE 5.8 mph - N/A   Overcast
1:15 PM 44.6 °F 40.7 °F 37.4 °F 76% 30.30 in 10.0 mi SSE 6.9 mph - N/A   Overcast
1:35 PM 44.6 °F 41.4 °F 35.6 °F 71% 30.29 in 10.0 mi South 5.8 mph - N/A   Overcast
1:55 PM 44.6 °F 40.7 °F 37.4 °F 76% 30.28 in 10.0 mi SSE 6.9 mph - N/A   Overcast
2:15 PM 46.4 °F 44.3 °F 35.6 °F 66% 30.27 in 10.0 mi SSE 4.6 mph - N/A   Overcast
2:35 PM 46.4 °F 42.9 °F 35.6 °F 66% 30.26 in 10.0 mi SE 6.9 mph - N/A   Overcast
2:55 PM 46.4 °F 42.9 °F 33.8 °F 62% 30.26 in 10.0 mi SE 6.9 mph - N/A   Overcast
3:15 PM 46.4 °F 42.9 °F 33.8 °F 62% 30.25 in 10.0 mi SE 6.9 mph - N/A   Overcast
3:35 PM 46.4 °F 42.9 °F 33.8 °F 62% 30.25 in 10.0 mi SE 6.9 mph - N/A   Overcast
3:55 PM 46.4 °F 42.4 °F 32.0 °F 57% 30.24 in 10.0 mi SE 8.1 mph - N/A   Overcast
4:15 PM 46.4 °F 42.4 °F 33.8 °F 62% 30.24 in 10.0 mi ESE 8.1 mph - N/A   Overcast
4:35 PM 46.4 °F 42.9 °F 33.8 °F 62% 30.23 in 10.0 mi ESE 6.9 mph - N/A   Overcast
5:15 PM 46.4 °F 42.9 °F 33.8 °F 62% 30.23 in 10.0 mi SE 6.9 mph - N/A   Overcast
5:35 PM 46.4 °F 44.3 °F 33.8 °F 62% 30.23 in 10.0 mi SE 4.6 mph - N/A   Overcast
5:55 PM 46.4 °F 43.5 °F 33.8 °F 62% 30.22 in 10.0 mi SE 5.8 mph - N/A   Overcast
6:15 PM 44.6 °F 41.4 °F 33.8 °F 66% 30.22 in 10.0 mi SE 5.8 mph - N/A   Overcast
6:35 PM 46.4 °F 43.5 °F 33.8 °F 62% 30.22 in 10.0 mi SE 5.8 mph - N/A   Overcast
6:55 PM 46.4 °F 45.2 °F 33.8 °F 62% 30.23 in 10.0 mi SE 3.5 mph - N/A   Overcast
7:15 PM 44.6 °F 43.1 °F 33.8 °F 66% 30.23 in 10.0 mi SE 3.5 mph - N/A   Overcast
7:35 PM 44.6 °F - 33.8 °F 66% 30.23 in 10.0 mi Calm Calm - N/A   Overcast
7:55 PM 44.6 °F 42.2 °F 35.6 °F 71% 30.23 in 10.0 mi ESE 4.6 mph - N/A   Overcast
8:15 PM 44.6 °F 43.1 °F 35.6 °F 71% 30.23 in 10.0 mi SE 3.5 mph - N/A   Overcast
8:35 PM 44.6 °F 43.1 °F 35.6 °F 71% 30.23 in 10.0 mi SE 3.5 mph - N/A   Overcast
8:55 PM 44.6 °F 43.1 °F 35.6 °F 71% 30.23 in 10.0 mi SE 3.5 mph - N/A   Overcast
9:15 PM 44.6 °F 41.4 °F 33.8 °F 66% 30.23 in 10.0 mi SSE 5.8 mph - N/A   Overcast
9:35 PM 46.4 °F 43.5 °F 33.8 °F 62% 30.23 in 10.0 mi SSE 5.8 mph - N/A   Overcast
9:55 PM 46.4 °F 42.9 °F 33.8 °F 62% 30.23 in 10.0 mi South 6.9 mph - N/A   Overcast
10:15 PM 46.4 °F 41.9 °F 33.8 °F 62% 30.23 in 10.0 mi SSE 9.2 mph - N/A   Overcast
10:55 PM 46.4 °F 42.9 °F 33.8 °F 62% 30.23 in 10.0 mi SSE 6.9 mph - N/A   Overcast
11:35 PM 46.4 °F 43.5 °F 33.8 °F 62% 30.23 in 10.0 mi SSE 5.8 mph - N/A   Overcast
11:55 PM 46.4 °F 43.5 °F 33.8 °F 62% 30.23 in 10.0 mi SSE 5.8 mph - N/A   Overcast